Location: Helsinki
(60.1699°N, 24.9384°E)
Time: 21:51:59
(UTC+03:00)

Envisat - Pass Details

Date: 22 August 2022
Orbit: 764 x 765 km, 98.2° (Epoch: 27 September)

Event Time Altitude Azimuth Distance (km) Brightness Sun altitude
Rises 04:41:23 0° 21° (NNE) 3,248 7.5 -7.9°
Reaches altitude 10° 04:44:11 10° 36° (NE) 2,317 7.0 -7.7°
Maximum altitude 04:48:11 23° 87° (E) 1,606 5.4 -7.3°
Drops below altitude 10° 04:52:09 10° 139° (SE) 2,303 5.5 -6.9°
Sets 04:54:55 0° 154° (SSE) 3,224 6.1 -6.7°
